Tracking 17560 objects as of 11-February-2016
HD Live streaming from Space Station
objects crossing your sky now

SL-3 DEB

Track SL-3 DEB now!
10-day predictions


NORAD ID: 14928
Int'l Code: 1983-075F
Perigee: 515.5 km
Apogee: 563.5 km
Inclination: 97.8 °
Period: 95.3 minutes
Semi major axis: 6910 km
RCS: 0.0341 m2 (small)
Launch date: July 24, 1983
Source: Commonwealth of Independent States (former USSR) (CIS)
Launch site: TYURATAM MISSILE AND SPACE COMPLEX (TTMTR)

Note: This is SATELLITE DEBRIS
Your satellite tracking list
Your tracking list is empty





NASA's NSSDC Master Catalog

Two Line Element Set (TLE):
1 14928U 83075F   16040.92158002 +.00002606 +00000-0 +15696-3 0  9999
2 14928 097.8167 170.7875 0034710 101.3328 017.2062 15.1124698745564
Source of the keplerian elements: AFSPC

N2YO: 867